Location: Makanda
(37.6176°N, 89.2090°W)
Time: 21:43:01
(UTC+00:00)

Cosmos 2278 - Pass Details

Date: 23 September 2019
Orbit: 840 x 853 km, 71.1° (Epoch: 14 October)

Event Time Altitude Azimuth Distance (km) Brightness Sun altitude
Rises 10:50:25 0° 189° (S) 3,376 6.6 -11.7°
Reaches altitude 10° 10:52:53 10° 185° (S) 2,446 6.0 -11.2°
Maximum altitude 10:58:22 58° 108° (ESE) 977 4.4 -10.1°
Drops below altitude 10° 11:03:53 10° 30° (NNE) 2,464 6.7 -9.0°
Sets 11:06:22 0° 27° (NNE) 3,404 7.4 -8.5°
